Retour au catalogue

LEMUR 2 EMERSONROSE

ActifScienceSSO
NORAD 63261·PAYLOAD·🇺🇸 United States

Lancé Mar 15, 2025 depuis Vandenberg Space Force Base

Loading…

Prochains Passages (prochaines 24 heures)

TLE

FraisSource: Space-Track

Époque: Sep 14, 2026, 12:28 UTC

1 63261U 25052BD  26257.51962445  .00003777  00000-0  31128-3 0  9992
2 63261  97.6763 149.6138 0005305  98.9717 261.2107 14.99637091 82125

Suivez LEMUR 2 EMERSONROSE en temps réel avec AllMySat

Download on the App Store